Time,TemperatureF,DewpointF,PressureIn,WindDirection,WindDirectionDegrees,WindSpeedMPH,WindSpeedGustMPH,Humidity,HourlyPrecipIn,Conditions,Clouds,dailyrainin,SolarRadiationWatts/m^2,SoftwareType,DateUTC
2013-05-20 00:01:00,44.0,17.0,-100.00,West,265,2.0,6.0,34,0.00,,,0.00,0.000000,,2013-05-20 07:01:00,
2013-05-20 00:32:00,42.0,21.0,-100.00,SSE,156,3.0,6.0,43,0.00,,,0.00,0.000000,,2013-05-20 07:32:00,
2013-05-20 00:42:00,42.0,21.0,-100.00,SSE,156,3.0,6.0,43,0.00,,,0.00,0.000000,,2013-05-20 07:42:00,
2013-05-20 00:52:00,42.0,21.0,-100.00,SSE,156,3.0,6.0,43,0.00,,,0.00,0.000000,,2013-05-20 07:52:00,
2013-05-20 01:01:00,42.0,21.0,-100.00,SSE,156,3.0,6.0,43,0.00,,,0.00,0.000000,,2013-05-20 08:01:00,
2013-05-20 01:32:00,36.0,20.0,-100.00,ENE,74,1.0,3.0,51,0.00,,,0.00,0.000000,,2013-05-20 08:32:00,
2013-05-20 01:42:00,36.0,20.0,-100.00,ENE,74,1.0,3.0,51,0.00,,,0.00,0.000000,,2013-05-20 08:42:00,
2013-05-20 01:52:00,36.0,20.0,-100.00,ENE,74,1.0,3.0,51,0.00,,,0.00,0.000000,,2013-05-20 08:52:00,
2013-05-20 02:01:00,36.0,20.0,-100.00,ENE,74,1.0,3.0,51,0.00,,,0.00,0.000000,,2013-05-20 09:01:00,
2013-05-20 02:33:00,34.0,22.0,-100.00,WSW,244,2.0,3.0,60,0.00,,,0.00,0.000000,,2013-05-20 09:33:00,
2013-05-20 02:43:00,34.0,22.0,-100.00,WSW,244,2.0,3.0,60,0.00,,,0.00,0.000000,,2013-05-20 09:43:00,
2013-05-20 02:52:00,34.0,22.0,-100.00,WSW,244,2.0,3.0,60,0.00,,,0.00,0.000000,,2013-05-20 09:52:00,
2013-05-20 03:03:00,34.0,22.0,-100.00,WSW,244,2.0,3.0,60,0.00,,,0.00,0.000000,,2013-05-20 10:03:00,
2013-05-20 03:33:00,32.0,22.0,-100.00,NW,315,2.0,4.0,65,0.00,,,0.00,0.000000,,2013-05-20 10:33:00,
2013-05-20 03:42:00,32.0,22.0,-100.00,NW,315,2.0,4.0,65,0.00,,,0.00,0.000000,,2013-05-20 10:42:00,
2013-05-20 03:52:00,32.0,22.0,-100.00,NW,315,2.0,4.0,65,0.00,,,0.00,0.000000,,2013-05-20 10:52:00,
2013-05-20 04:02:00,32.0,22.0,-100.00,NW,315,2.0,4.0,65,0.00,,,0.00,0.000000,,2013-05-20 11:02:00,
2013-05-20 04:32:00,32.0,23.0,-100.00,SW,231,3.0,4.0,70,0.00,,,0.00,0.000000,,2013-05-20 11:32:00,
2013-05-20 04:42:00,32.0,23.0,-100.00,SW,231,3.0,4.0,70,0.00,,,0.00,0.000000,,2013-05-20 11:42:00,
2013-05-20 04:52:00,32.0,23.0,-100.00,SW,231,3.0,4.0,70,0.00,,,0.00,0.000000,,2013-05-20 11:52:00,
2013-05-20 05:01:00,32.0,23.0,-100.00,SW,231,3.0,4.0,70,0.00,,,0.00,0.000000,,2013-05-20 12:01:00,
2013-05-20 05:32:00,31.0,21.0,-100.00,West,268,0.0,4.0,67,0.00,,,0.00,0.000000,,2013-05-20 12:32:00,
2013-05-20 05:42:00,31.0,21.0,-100.00,West,268,0.0,4.0,67,0.00,,,0.00,0.000000,,2013-05-20 12:42:00,
2013-05-20 05:52:00,31.0,21.0,-100.00,West,268,0.0,4.0,67,0.00,,,0.00,0.000000,,2013-05-20 12:52:00,
2013-05-20 06:01:00,31.0,21.0,-100.00,West,268,0.0,4.0,67,0.00,,,0.00,0.000000,,2013-05-20 13:01:00,
2013-05-20 07:32:00,49.0,27.0,-100.00,WSW,244,4.0,7.0,43,-99.99,,,0.00,103.000000,,2013-05-20 14:32:00,
2013-05-20 07:42:00,49.0,27.0,-100.00,WSW,244,4.0,7.0,43,-99.99,,,0.00,103.000000,,2013-05-20 14:42:00,
2013-05-20 07:52:00,49.0,27.0,-100.00,WSW,244,4.0,7.0,43,-99.99,,,0.00,103.000000,,2013-05-20 14:52:00,
2013-05-20 08:01:00,49.0,27.0,-100.00,WSW,244,4.0,7.0,43,-99.99,,,0.00,103.000000,,2013-05-20 15:01:00,
2013-05-20 08:33:00,53.0,18.0,-100.00,West,262,7.0,12.0,25,0.00,,,0.00,468.000000,,2013-05-20 15:33:00,
2013-05-20 08:42:00,53.0,18.0,-100.00,West,262,7.0,12.0,25,0.00,,,0.00,468.000000,,2013-05-20 15:42:00,
2013-05-20 08:53:00,53.0,18.0,-100.00,West,262,7.0,12.0,25,0.00,,,0.00,468.000000,,2013-05-20 15:53:00,
2013-05-20 09:02:00,53.0,18.0,-100.00,West,262,7.0,12.0,25,0.00,,,0.00,468.000000,,2013-05-20 16:02:00,
2013-05-20 09:33:00,55.0,21.0,-100.00,West,278,7.0,13.0,26,0.00,,,0.00,661.000000,,2013-05-20 16:33:00,
2013-05-20 09:42:00,55.0,21.0,-100.00,West,278,7.0,13.0,26,0.00,,,0.00,661.000000,,2013-05-20 16:42:00,
2013-05-20 09:53:00,55.0,21.0,-100.00,West,278,7.0,13.0,26,0.00,,,0.00,661.000000,,2013-05-20 16:53:00,
2013-05-20 10:02:00,55.0,21.0,-100.00,West,278,7.0,13.0,26,0.00,,,0.00,661.000000,,2013-05-20 17:02:00,
2013-05-20 10:33:00,57.0,21.0,-100.00,WSW,241,9.0,15.0,24,0.00,,,0.00,825.000000,,2013-05-20 17:33:00,
2013-05-20 10:45:00,57.0,21.0,-100.00,WSW,241,9.0,15.0,24,0.00,,,0.00,825.000000,,2013-05-20 17:45:00,
2013-05-20 10:53:00,57.0,21.0,-100.00,WSW,241,9.0,15.0,24,0.00,,,0.00,825.000000,,2013-05-20 17:53:00,
2013-05-20 11:02:00,57.0,21.0,-100.00,WSW,241,9.0,15.0,24,0.00,,,0.00,825.000000,,2013-05-20 18:02:00,
2013-05-20 11:33:00,59.0,18.0,-100.00,WSW,257,8.0,19.0,20,0.00,,,0.00,945.000000,,2013-05-20 18:33:00,
2013-05-20 11:42:00,59.0,18.0,-100.00,WSW,257,8.0,19.0,20,0.00,,,0.00,945.000000,,2013-05-20 18:42:00,
2013-05-20 11:55:00,59.0,18.0,-100.00,WSW,257,8.0,19.0,20,0.00,,,0.00,945.000000,,2013-05-20 18:55:00,
2013-05-20 12:04:00,59.0,18.0,-100.00,WSW,257,8.0,19.0,20,0.00,,,0.00,945.000000,,2013-05-20 19:04:00,
2013-05-20 13:32:00,63.0,18.0,-100.00,NNW,337,6.0,16.0,17,-99.99,,,0.00,1012.000000,,2013-05-20 20:32:00,
2013-05-20 13:42:00,63.0,18.0,-100.00,NNW,337,6.0,16.0,17,-99.99,,,0.00,1012.000000,,2013-05-20 20:42:00,
2013-05-20 13:52:00,63.0,18.0,-100.00,NNW,337,6.0,16.0,17,-99.99,,,0.00,1012.000000,,2013-05-20 20:52:00,
2013-05-20 14:01:00,63.0,18.0,-100.00,NNW,337,6.0,16.0,17,-99.99,,,0.00,1012.000000,,2013-05-20 21:01:00,
2013-05-20 15:33:00,65.0,20.0,-100.00,NNW,334,7.0,14.0,18,-99.99,,,0.00,754.000000,,2013-05-20 22:33:00,
2013-05-20 15:42:00,65.0,20.0,-100.00,NNW,334,7.0,14.0,18,-99.99,,,0.00,754.000000,,2013-05-20 22:42:00,
2013-05-20 15:52:00,65.0,20.0,-100.00,NNW,334,7.0,14.0,18,-99.99,,,0.00,754.000000,,2013-05-20 22:52:00,
2013-05-20 16:02:00,65.0,20.0,-100.00,NNW,334,7.0,14.0,18,-99.99,,,0.00,754.000000,,2013-05-20 23:02:00,
2013-05-20 16:32:00,65.0,19.0,-100.00,West,265,6.0,15.0,17,0.00,,,0.00,710.000000,,2013-05-20 23:32:00,
2013-05-20 16:42:00,65.0,19.0,-100.00,West,265,6.0,15.0,17,0.00,,,0.00,710.000000,,2013-05-20 23:42:00,
2013-05-20 16:53:00,65.0,19.0,-100.00,West,265,6.0,15.0,17,0.00,,,0.00,710.000000,,2013-05-20 23:53:00,
2013-05-20 17:01:00,65.0,19.0,-100.00,West,265,6.0,15.0,17,0.00,,,0.00,710.000000,,2013-05-21 00:01:00,
2013-05-20 17:32:00,66.0,19.0,-100.00,NNW,346,7.0,15.0,16,0.00,,,-99.99,547.000000,,2013-05-21 00:32:00,
2013-05-20 17:42:00,66.0,19.0,-100.00,NNW,346,7.0,15.0,16,0.00,,,-99.99,547.000000,,2013-05-21 00:42:00,
2013-05-20 17:52:00,66.0,19.0,-100.00,NNW,346,7.0,15.0,16,0.00,,,-99.99,547.000000,,2013-05-21 00:52:00,
2013-05-20 18:01:00,66.0,19.0,-100.00,NNW,346,7.0,15.0,16,0.00,,,-99.99,547.000000,,2013-05-21 01:01:00,
2013-05-20 18:32:00,65.0,20.0,-100.00,NW,325,5.0,13.0,18,0.00,,,0.00,330.000000,,2013-05-21 01:32:00,
2013-05-20 18:42:00,65.0,20.0,-100.00,NW,325,5.0,13.0,18,0.00,,,0.00,330.000000,,2013-05-21 01:42:00,
2013-05-20 18:52:00,65.0,20.0,-100.00,NW,325,5.0,13.0,18,0.00,,,0.00,330.000000,,2013-05-21 01:52:00,
2013-05-20 19:01:00,65.0,20.0,-100.00,NW,325,5.0,13.0,18,0.00,,,0.00,330.000000,,2013-05-21 02:01:00,
2013-05-20 19:32:00,59.0,16.0,-100.00,NNW,335,3.0,10.0,18,0.00,,,0.00,106.000000,,2013-05-21 02:32:00,
2013-05-20 19:42:00,59.0,16.0,-100.00,NNW,335,3.0,10.0,18,0.00,,,0.00,106.000000,,2013-05-21 02:42:00,
2013-05-20 19:52:00,59.0,16.0,-100.00,NNW,335,3.0,10.0,18,0.00,,,0.00,106.000000,,2013-05-21 02:52:00,
2013-05-20 20:02:00,59.0,16.0,-100.00,NNW,335,3.0,10.0,18,0.00,,,0.00,106.000000,,2013-05-21 03:02:00,
2013-05-20 20:33:00,52.0,17.0,-100.00,North,0,2.0,7.0,25,0.00,,,0.00,4.000000,,2013-05-21 03:33:00,
2013-05-20 20:43:00,52.0,17.0,-100.00,North,0,2.0,7.0,25,0.00,,,0.00,4.000000,,2013-05-21 03:43:00,
2013-05-20 20:53:00,52.0,17.0,-100.00,North,0,2.0,7.0,25,0.00,,,0.00,4.000000,,2013-05-21 03:53:00,
2013-05-20 21:03:00,52.0,17.0,-100.00,North,0,2.0,7.0,25,0.00,,,0.00,4.000000,,2013-05-21 04:03:00,
2013-05-20 21:33:00,45.0,18.0,-100.00,WNW,285,2.0,4.0,33,0.00,,,0.00,0.000000,,2013-05-21 04:33:00,
2013-05-20 21:42:00,45.0,18.0,-100.00,WNW,285,2.0,4.0,33,0.00,,,0.00,0.000000,,2013-05-21 04:42:00,
2013-05-20 21:53:00,45.0,18.0,-100.00,WNW,285,2.0,4.0,33,0.00,,,0.00,0.000000,,2013-05-21 04:53:00,
2013-05-20 22:02:00,45.0,18.0,-100.00,WNW,285,2.0,4.0,33,0.00,,,0.00,0.000000,,2013-05-21 05:02:00,
2013-05-20 22:32:00,42.0,19.0,-100.00,SW,233,1.0,3.0,39,0.00,,,0.00,0.000000,,2013-05-21 05:32:00,
2013-05-20 22:42:00,42.0,19.0,-100.00,SW,233,1.0,3.0,39,0.00,,,0.00,0.000000,,2013-05-21 05:42:00,
2013-05-20 22:52:00,42.0,19.0,-100.00,SW,233,1.0,3.0,39,0.00,,,0.00,0.000000,,2013-05-21 05:52:00,
2013-05-20 23:02:00,42.0,19.0,-100.00,SW,233,1.0,3.0,39,0.00,,,0.00,0.000000,,2013-05-21 06:02:00,
2013-05-20 23:32:00,37.0,17.0,-100.00,North,2,1.0,4.0,44,0.00,,,0.00,0.000000,,2013-05-21 06:32:00,
2013-05-20 23:42:00,37.0,17.0,-100.00,North,2,1.0,4.0,44,0.00,,,0.00,0.000000,,2013-05-21 06:42:00,
2013-05-20 23:52:00,37.0,17.0,-100.00,North,2,1.0,4.0,44,0.00,,,0.00,0.000000,,2013-05-21 06:52:00,